sat.trackr.live / text

‹ back to catalog

AETHER-3

NORAD 67374 · 2026-004M

PAYLOAD ACTIVE UNKNOWN

§ Identity

Operator
Country
CA
Launch date
2026-01-11
Launch site
AFWTR
Launch vehicle
Mass (kg)
RCS (m²)

External: N2YO · Heavens-Above · Gunter

§ Orbital elements

Epoch: 2026-05-25T05:30:22.143744Z

Period
96.77 min
Inclination
97.7997°
Eccentricity
0.0003463
Mean motion
14.87996944 rev/d
Perigee alt
601.8 km
Apogee alt
606.6 km
Semi-major
6,982.3 km
B*
7.5219e-5
RAAN
144.2113°
Arg perigee
183.7033°
Mean anomaly
176.4158°
Rev number
1,988

§ Raw data

AETHER-31 67374U 26004M   26145.22942296  .00000636  00000+0  75219-4 0  99952 67374  97.7997 144.2113 0003463 183.7033 176.4158 14.87996944 19883

JSON: /api/v1/satellites/67374 · /tle

For live sub-satellite position, see the globe view (requires WebGL).

§ Visibility from observer

Set your observer location to see the next 7 days of passes ≥ 10°. The values pass through the URL so the page stays shareable.

No JS? Fill the form by hand. The geolocation button needs JavaScript.